Stations météo

Publicité
Rodez, France (7552): Température de l'air & dewpoint: 15.10.2017 19:00:00 - 21.10.2017 19:00:00 (CEST)Rodez, France (7552): Température de l'air 5cm: 15.10.2017 19:00:00 - 21.10.2017 19:00:00 (CEST)Rodez, France (7552): Vitesse du vent & gusts: 15.10.2017 19:00:00 - 21.10.2017 19:00:00 (CEST)Rodez, France (7552): Direction du vent: 15.10.2017 19:00:00 - 21.10.2017 19:00:00 (CEST)Rodez, France (7552): reduced air pressure: 15.10.2017 19:00:00 - 21.10.2017 19:00:00 (CEST)Rodez, France (7552): visibility: 15.10.2017 19:00:00 - 21.10.2017 19:00:00 (CEST)Rodez, France (7552): Ensoleillement: 15.10.2017 19:00:00 - 21.10.2017 19:00:00 (CEST)Rodez, France (7552): Quantités de précipitations: 15.10.2017 19:00:00 - 21.10.2017 19:00:00 (CEST)
Date & Time tt [°C] td [°C] tt 5cm [°C] ff [km/h] ff [knt] fx [km/h] fx [knt] dd ppp [hPa] vv [km] sd [min] rr [mm]
21.10.2017 19:00:00 9,9 9,4 9,6 22 12 36 19 NW 1024,6 4,9 0 1,0
21.10.2017 18:00:00 10,8 9,4 10,5 13 7 29 16 WNW 1023,9 10 0 0,0
21.10.2017 17:00:00 11,0 9,4 10,7 19 11 40 22 WNW 1023,5 19 0 0,0
21.10.2017 16:00:00 11,9 8,9 11,3 13 7 29 16 W 1022,7 10 0 0,0
21.10.2017 15:00:00 11,3 9,6 10,7 16 9 53 29 NW 1022,6 10 0 0,2
21.10.2017 14:00:00 12,8 11,5 12,8 22 12 36 19 WNW 1021,8 10 0 0,4
21.10.2017 13:00:00 14,0 13,2 13,9 20 11 33 18 WSW 1021,3 3,7 0 0,0
21.10.2017 12:00:00 15,7 12,8 16,9 18 10 29 16 SW 1020,9 10 0 0,0
21.10.2017 11:00:00 15,5 12,8 14,5 9 5 19 11 W 1021,0 10 13 0,0
21.10.2017 10:00:00 13,8 12,0 11,4 8 4 13 7 SE 1020,7 10 30 0,0
21.10.2017 09:00:00 11,9 10,5 8,8 8 4 13 7 E 1020,7 10 23 0,0
21.10.2017 08:00:00 10,6 9,8 8,7 11 6 16 9 SE 1020,6 10 0 0,0
21.10.2017 07:00:00 10,2 10,2 5,2 8 4 10 6 SE 1020,5 4,4 0 0,0
21.10.2017 06:00:00 8,2 7,9 4,6 9 5 10 5 SE 1020,3 0,4 0 0,0
21.10.2017 05:00:00 11,1 10,3 8,6 5 3 10 5 E 1019,4 5 0 0,0
21.10.2017 04:00:00 10,9 10,6 6,0 6 3 11 6 SE 1019,5 7 0 0,0
21.10.2017 03:00:00 11,5 10,9 7,1 9 5 14 7 SE 1019,5 7 0 0,0
21.10.2017 02:00:00 12,7 11,4 9,4 11 6 16 9 ESE 1019,4 10 0 0,0
21.10.2017 01:00:00 13,5 11,9 11,7 11 6 14 8 ESE 1019,4 10 0 0,0
21.10.2017 00:00:00 13,4 12,3 8,4 9 5 12 6 ESE 1019,6 9 0 0,0
20.10.2017 23:00:00 12,3 10,5 9,0 9 5 12 6 SE 1019,9 8 0 0,0
20.10.2017 22:00:00 12,9 12,0 9,6 10 5 13 7 SSE 1019,5 13 0 0,0
20.10.2017 21:00:00 14,0 12,7 9,8 6 3 8 5 SE 1019,1 11 0 0,0
20.10.2017 20:00:00 14,8 13,0 11,7 4 2 7 4 SSE 1018,8 14 0 0,0
20.10.2017 19:00:00 16,3 13,2 14,5 3 2 11 6 S 1018,0 42 20 0,0
20.10.2017 18:00:00 17,0 13,5 17,4 8 4 14 8 S 1017,7 48 0 0,0
20.10.2017 17:00:00 17,1 13,6 18,3 9 5 18 10 S 1017,7 51 0 0,0
20.10.2017 16:00:00 17,1 13,8 16,4 8 4 19 10 S 1017,5 10 0 0,0
20.10.2017 15:00:00 16,2 13,5 16,6 15 8 24 13 S 1018,0 10 0 0,0
20.10.2017 14:00:00 17,5 13,8 18,2 9 5 16 9 SW 1017,9 10 2 0,0
20.10.2017 13:00:00 16,5 13,4 17,4 10 5 16 9 SW 1018,5 31 0 0,0
20.10.2017 12:00:00 15,7 13,4 16,6 5 3 17 9 W 1018,3 10 0 0,0
20.10.2017 11:00:00 15,5 13,2 16,2 13 7 21 11 SSW 1018,2 20 0 0,0
20.10.2017 10:00:00 14,7 13,1 14,4 16 9 24 13 S 1017,5 14 11 0,0
20.10.2017 09:00:00 14,1 12,3 13,3 14 8 25 13 SSE 1016,8 13 5 0,0
20.10.2017 08:00:00 13,7 11,7 13,3 2 1 11 6 SW 1016,6 15 0 0,0
20.10.2017 07:00:00 13,9 11,8 13,1 9 5 16 9 SSE 1016,0 18 0 0,0
20.10.2017 06:00:00 13,7 11,4 12,6 7 4 13 7 SSE 1015,9 20 0 0,0
20.10.2017 05:00:00 13,4 11,8 12,5 0 0 7 4 N 1015,7 10 0 0,0
20.10.2017 04:00:00 13,6 11,5 12,5 4 2 18 10 E 1015,7 17 0 0,0
20.10.2017 03:00:00 13,7 11,6 12,6 13 7 24 13 SE 1015,1 10 0 0,0
20.10.2017 02:00:00 13,8 11,8 13,0 10 5 19 10 SSE 1015,3 20 0 0,0
20.10.2017 01:00:00 14,0 11,7 13,0 14 8 29 16 SSE 1014,4 29 0 0,0
20.10.2017 00:00:00 14,1 11,8 12,2 20 11 28 15 SE 1013,8 26 0 0,0
19.10.2017 23:00:00 13,6 11,5 12,4 10 5 15 8 ESE 1013,3 20 0 0,0
19.10.2017 22:00:00 13,5 12,9 11,5 2 1 8 4 ENE 1013,9 9 0 0,0
19.10.2017 21:00:00 13,7 13,1 13,3 6 3 14 7 SSE 1014,0 8 0 1,2
19.10.2017 20:00:00 14,2 12,9 13,5 10 5 18 10 SE 1013,4 7 0 0,4
19.10.2017 19:00:00 14,7 13,4 14,1 11 6 21 11 ESE 1012,4 20 18 0,8
19.10.2017 18:00:00 15,9 13,2 15,3 14 8 29 16 SE 1011,5 27 24 0,0
19.10.2017 17:00:00 16,3 13,8 14,3 17 9 25 14 SSE 1010,8 60 31 2,0
19.10.2017 16:00:00 15,1 13,3 14,6 18 10 31 17 SE 1011,1 10 0 0,2
19.10.2017 15:00:00 14,8 13,7 14,6 11 6 28 15 SSE 1011,2 10 0 1,4
19.10.2017 14:00:00 15,5 13,3 14,2 18 10 33 18 SE 1011,4 10 7 0,8
19.10.2017 13:00:00 14,3 13,0 13,6 11 6 29 16 SE 1012,2 10 0 1,6
19.10.2017 12:00:00 14,8 12,5 14,0 24 13 39 21 SE 1011,7 10 0 0,2
19.10.2017 11:00:00 15,3 12,4 14,3 25 13 43 23 SE 1011,6 49 0 0,0
19.10.2017 10:00:00 15,0 11,6 13,0 28 15 40 22 SE 1011,1 10 8 0,0
19.10.2017 09:00:00 14,1 11,4 12,5 24 13 46 25 SE 1011,3 10 0 0,2
19.10.2017 08:00:00 14,6 11,4 13,6 22 12 49 26 SE 1010,6 10 0 0,0
19.10.2017 07:00:00 14,7 11,8 13,5 28 15 41 22 SE 1010,2 60 0 0,0
19.10.2017 06:00:00 14,4 12,8 13,6 24 13 50 27 ESE 1010,5 8 0 4,4
19.10.2017 05:00:00 16,0 11,8 15,3 29 16 46 25 SE 1009,8 10 0 0,0
19.10.2017 04:00:00 16,1 11,5 15,3 29 16 54 29 SSE 1009,5 60 0 0,0
19.10.2017 03:00:00 16,6 11,3 15,9 33 18 57 31 SE 1009,8 60 0 0,0
19.10.2017 02:00:00 16,9 12,0 16,0 34 18 57 31 SE 1009,5 10 0 0,0
19.10.2017 01:00:00 16,7 12,2 15,2 31 17 58 31 SE 1009,6 10 0 0,0
19.10.2017 00:00:00 16,2 12,6 15,1 33 18 55 30 SE 1009,8 39 0 0,0
18.10.2017 23:00:00 16,8 11,5 16,0 25 13 53 29 SE 1010,3 44 0 0,0
18.10.2017 22:00:00 16,9 12,4 15,0 29 16 56 31 SE 1010,3 41 0 0,0
18.10.2017 21:00:00 17,6 12,1 16,6 39 21 67 36 SSE 1010,1 44 0 0,0
18.10.2017 20:00:00 17,3 11,8 16,0 34 18 56 31 SE 1009,8 35 0 0,0
18.10.2017 19:00:00 16,9 11,8 16,2 29 16 50 27 SE 1009,8 37 26 0,0
18.10.2017 18:00:00 17,9 12,3 17,5 31 17 58 32 SE 1009,6 10 31 0,0
18.10.2017 17:00:00 19,4 12,6 19,6 39 21 62 33 SE 1009,5 10 45 0,0
18.10.2017 16:00:00 19,7 12,7 21,4 35 19 57 31 SE 1010,1 10 50 0,0
18.10.2017 15:00:00 19,8 13,0 20,8 29 16 53 29 SE 1010,3 10 17 0,0
18.10.2017 14:00:00 19,1 13,1 21,2 34 18 59 32 SE 1011,6 10 36 0,0
18.10.2017 13:00:00 19,4 13,1 21,0 34 18 58 31 SE 1012,2 10 47 0,0
18.10.2017 12:00:00 18,6 13,0 18,9 31 17 54 29 SE 1012,9 10 10 0,0
18.10.2017 11:00:00 18,2 12,6 - 29 16 48 26 SE 1013,2 10 - -
18.10.2017 10:00:00 17,4 11,9 15,5 29 16 47 25 SE 1013,6 10 33 0,0
18.10.2017 09:00:00 15,8 11,2 14,2 22 12 36 20 SE 1013,9 33 25 0,0
18.10.2017 08:00:00 15,3 10,7 13,8 19 11 36 20 SE 1014,0 40 0 0,0
18.10.2017 07:00:00 15,0 10,6 13,0 21 11 32 17 SE 1014,5 43 0 0,0
18.10.2017 06:00:00 14,5 10,7 - 16 9 31 17 SE 1015,1 10 - 0,0
18.10.2017 05:00:00 14,5 10,5 12,6 16 9 31 17 SE 1015,7 40 0 0,0
18.10.2017 04:00:00 14,6 10,8 13,2 22 12 37 20 SE 1015,9 38 0 0,0
18.10.2017 03:00:00 14,8 11,0 12,7 23 12 33 18 SE 1016,7 34 0 0,0
18.10.2017 02:00:00 14,4 10,8 12,6 16 9 27 14 SE 1017,4 10 0 0,0
18.10.2017 01:00:00 14,5 11,1 12,6 18 10 26 14 ESE 1017,7 24 0 0,0
18.10.2017 00:00:00 14,1 10,5 12,7 18 10 33 18 SE 1018,5 25 0 0,0
17.10.2017 23:00:00 14,2 10,4 12,5 18 10 26 14 SE 1018,7 10 0 0,0
17.10.2017 22:00:00 14,3 10,3 12,7 18 10 28 15 SE 1018,8 10 0 0,0
17.10.2017 21:00:00 14,5 9,9 13,2 18 10 32 17 ESE 1018,8 10 0 0,0
17.10.2017 20:00:00 15,0 9,8 13,6 18 10 34 18 SE 1018,9 10 0 0,0
17.10.2017 19:00:00 15,9 9,8 14,8 24 13 38 21 SE 1018,6 10 40 0,0
17.10.2017 18:00:00 17,4 10,0 17,4 22 12 41 22 SSE 1018,5 10 60 0,0
17.10.2017 17:00:00 19,1 9,8 22,1 24 13 40 22 SE 1018,1 10 60 0,0
17.10.2017 16:00:00 19,9 9,7 23,8 24 13 39 21 SSE 1018,2 10 60 0,0
17.10.2017 15:00:00 21,0 9,9 24,8 22 12 41 22 SE 1018,4 10 60 0,0
17.10.2017 14:00:00 20,0 9,8 23,9 23 13 38 20 SE 1019,1 26 60 0,0
17.10.2017 13:00:00 19,3 10,0 22,4 28 15 42 23 SE 1020,0 10 60 0,0
17.10.2017 12:00:00 18,1 10,0 20,7 28 15 42 23 SE 1020,6 10 60 0,0
17.10.2017 11:00:00 16,8 10,2 17,3 28 15 39 21 SE 1021,4 10 60 0,0
17.10.2017 10:00:00 14,9 9,9 13,3 16 9 26 14 ESE 1021,9 10 60 0,0
17.10.2017 09:00:00 11,9 9,1 9,8 12 6 18 10 E 1022,7 20 0 0,0
17.10.2017 08:00:00 10,9 9,2 9,3 13 7 19 10 E 1022,9 10 0 0,0
17.10.2017 07:00:00 10,8 9,1 9,6 13 7 20 11 E 1023,5 10 0 0,0
17.10.2017 06:00:00 11,6 9,3 9,4 14 8 19 11 E 1023,5 19 0 0,0
17.10.2017 05:00:00 10,7 9,3 8,8 11 6 16 8 E 1024,3 11 0 0,0
17.10.2017 04:00:00 12,0 9,0 10,3 13 7 23 12 E 1024,7 10 0 0,0
17.10.2017 03:00:00 13,2 9,8 7,1 16 8 23 12 ESE 1024,9 29 0 0,0
17.10.2017 02:00:00 10,7 8,3 4,9 6 3 11 6 SSE 1025,9 18 0 0,0
17.10.2017 01:00:00 11,7 8,9 6,6 4 2 25 14 - 1025,7 10 0 0,0
17.10.2017 00:00:00 13,8 10,2 11,5 16 9 33 18 SSE 1025,1 33 0 0,0
16.10.2017 23:00:00 13,6 9,6 9,6 8 5 21 11 ESE 1025,4 33 0 0,0
16.10.2017 22:00:00 13,8 9,2 12,0 12 7 19 10 ESE 1025,4 37 0 0,0
16.10.2017 21:00:00 15,4 9,5 9,2 12 7 16 9 SE 1025,3 44 0 0,0
16.10.2017 20:00:00 17,0 10,1 14,8 12 7 19 11 ESE 1024,8 46 0 0,0
16.10.2017 19:00:00 18,4 11,0 16,8 16 8 22 12 SE 1023,9 49 41 0,0
16.10.2017 18:00:00 20,5 11,9 20,5 11 6 23 12 SSE 1023,3 10 60 0,0
16.10.2017 17:00:00 22,2 11,3 25,5 16 9 25 14 SE 1022,8 10 60 0,0
16.10.2017 16:00:00 22,5 11,6 26,9 16 9 27 14 SE 1023,0 30 60 0,0
16.10.2017 15:00:00 22,2 11,3 27,4 18 10 27 15 SE 1023,3 10 60 0,0
16.10.2017 14:00:00 22,0 11,1 25,9 21 11 35 19 SE 1023,9 10 60 0,0
16.10.2017 13:00:00 20,8 11,1 24,7 21 11 34 18 SE 1024,4 10 60 0,0
16.10.2017 12:00:00 19,8 10,8 22,5 23 12 36 19 SE 1024,4 35 60 0,0
16.10.2017 11:00:00 18,5 10,8 17,9 26 14 39 21 SE 1024,7 37 60 0,0
16.10.2017 10:00:00 16,6 10,4 15,7 28 15 41 22 ESE 1024,8 10 60 0,0
16.10.2017 09:00:00 14,9 10,3 13,0 24 13 42 23 SE 1024,5 10 0 0,0
16.10.2017 08:00:00 14,2 9,8 12,9 24 13 39 21 SE 1024,1 39 0 0,0
16.10.2017 07:00:00 14,6 10,2 13,4 26 14 37 20 ESE 1023,8 39 0 0,0
16.10.2017 06:00:00 14,7 10,1 12,9 18 10 33 18 ESE 1023,9 37 0 0,0
16.10.2017 05:00:00 14,4 10,4 13,2 18 10 29 16 ESE 1024,2 10 0 0,0
16.10.2017 04:00:00 14,7 10,9 13,3 18 10 32 17 ESE 1024,5 10 0 0,0
16.10.2017 03:00:00 15,2 11,6 13,9 18 10 27 15 ESE 1024,9 32 0 0,0
16.10.2017 02:00:00 15,2 12,3 13,9 15 8 27 14 ESE 1025,2 10 0 0,0
16.10.2017 01:00:00 15,4 12,5 13,4 15 8 27 15 ESE 1025,7 27 0 0,0
16.10.2017 00:00:00 14,9 12,0 13,1 11 6 20 11 E 1026,1 10 0 0,0
15.10.2017 23:00:00 15,0 11,9 13,5 13 7 19 10 E 1026,0 10 0 0,0
15.10.2017 22:00:00 15,3 11,9 13,7 11 6 24 13 ESE 1026,1 35 0 0,0
15.10.2017 21:00:00 16,1 11,9 14,6 15 8 24 13 ESE 1025,7 10 0 0,0
15.10.2017 20:00:00 16,8 12,1 15,2 16 9 28 15 ESE 1025,5 45 0 0,0
15.10.2017 19:00:00 18,0 12,0 16,9 16 9 29 16 SE 1024,8 10 43 0,0

tt = Température de l'air
td = dewpoint
tt 5cm = Température de l'air 5cm
ff = Vitesse du vent
fx = gusts
dd = Direction du vent
ppp = reduced air pressure
vv = visibility
sd = Ensoleillement
rr = Quantités de précipitations

stations d'obs. à proximité